When you browse on this site, cookies collect data to enhance your experience and personalize the content and advertising you see.
Visit our Privacy Policy to learn more. By continuing to use the site, you agree to this use of cookies and data.
  • In Latvia
  • List of Countries
  • For 7 days
  • Water Temperature
  • Satellite Maps
  • Weather Map
  • Weather Widgets
  • user-avatar
    Login

    Hourly Weather Jizzax

    Today, 14 December, Friday

    Time Temperature Precipitation Wind Pressure Humidity
    00:00 +9°C° 0 mm 2 mps 733 mmHg 30%
    01:00 +9°C° 0 mm 2 mps 733 mmHg 29%
    02:00 +9°C° 0 mm 2 mps 733 mmHg 29%
    03:00 +9°C° 0 mm 3 mps 733 mmHg 28%
    04:00 +9°C° 0 mm 3 mps 733 mmHg 28%
    05:00 +9°C° 0 mm 3 mps 733 mmHg 27%
    06:00 +9°C° 0 mm 3 mps 733 mmHg 26%
    07:00 +9°C° 0 mm 3 mps 733 mmHg 26%
    08:00 +9°C° 0 mm 3 mps 733 mmHg 26%
    09:00 +12°C° 0 mm 2 mps 733 mmHg 24%
    10:00 +14°C° 0 mm 2 mps 733 mmHg 21%
    11:00 +17°C° 0 mm 2 mps 733 mmHg 19%
    12:00 +17°C° 0 mm 2 mps 733 mmHg 18%
    13:00 +18°C° 0 mm 2 mps 733 mmHg 17%
    14:00 +19°C° 0 mm 2 mps 733 mmHg 15%
    15:00 +18°C° 0 mm 2 mps 733 mmHg 18%
    16:00 +16°C° 0 mm 2 mps 733 mmHg 20%
    17:00 +15°C° 0 mm 2 mps 733 mmHg 22%
    18:00 +14°C° 0 mm 2 mps 734 mmHg 23%
    19:00 +14°C° 0 mm 2 mps 734 mmHg 24%
    20:00 +13°C° 0 mm 2 mps 734 mmHg 25%
    21:00 +13°C° 0 mm 2 mps 734 mmHg 26%
    22:00 +13°C° 0 mm 2 mps 735 mmHg 26%
    23:00 +12°C° 0 mm 2 mps 735 mmHg 27%

    Tomorrow, 15 December, Saturday

    Time Temperature Precipitation Wind Pressure Humidity
    00:00 +12°C° 0 mm 2 mps 735 mmHg 27%
    01:00 +12°C° 0 mm 2 mps 735 mmHg 28%
    02:00 +10°C° 0 mm 2 mps 735 mmHg 28%
    03:00 +10°C° 0 mm 2 mps 735 mmHg 29%
    04:00 +9°C° 0 mm 2 mps 735 mmHg 30%
    05:00 +10°C° 0 mm 1 mps 735 mmHg 31%
    06:00 +9°C° 0 mm 1 mps 735 mmHg 31%
    07:00 +9°C° 0 mm 1 mps 735 mmHg 32%
    08:00 +9°C° 0 mm 1 mps 735 mmHg 32%
    09:00 +10°C° 0 mm 1 mps 735 mmHg 30%
    10:00 +12°C° 0 mm 1 mps 735 mmHg 27%
    11:00 +14°C° 0 mm 1 mps 735 mmHg 24%
    12:00 +15°C° 0 mm 1 mps 735 mmHg 23%
    13:00 +15°C° 0 mm 1 mps 734 mmHg 22%
    14:00 +16°C° 0 mm 2 mps 734 mmHg 21%
    15:00 +15°C° 0 mm 1 mps 734 mmHg 23%
    16:00 +14°C° 0 mm 1 mps 734 mmHg 25%
    17:00 +13°C° 0 mm 1 mps 734 mmHg 26%
    18:00 +12°C° 0 mm 1 mps 734 mmHg 27%
    19:00 +10°C° 0 mm 2 mps 734 mmHg 27%
    20:00 +10°C° 0 mm 2 mps 734 mmHg 28%
    21:00 +9°C° 0 mm 2 mps 735 mmHg 30%
    22:00 +9°C° 0 mm 2 mps 735 mmHg 32%
    23:00 +8°C° 0 mm 3 mps 735 mmHg 34%

    Day after tomorrow, 16 December, Sunday

    Time Temperature Precipitation Wind Pressure Humidity
    00:00 +8°C° 0 mm 3 mps 736 mmHg 39%
    01:00 +7°C° 0 mm 3 mps 736 mmHg 44%
    02:00 +7°C° 0 mm 3 mps 736 mmHg 49%
    03:00 +5°C° 0 mm 3 mps 737 mmHg 56%
    04:00 +5°C° 0 mm 2 mps 737 mmHg 63%
    05:00 +5°C° 0 mm 2 mps 737 mmHg 70%
    06:00 +5°C° 0 mm 1 mps 738 mmHg 74%
    07:00 +5°C° 0 mm 1 mps 738 mmHg 78%
    08:00 +5°C° 0 mm 1 mps 739 mmHg 81%
    09:00 +6°C° 0 mm 1 mps 739 mmHg 77%
    10:00 +7°C° 0 mm 1 mps 739 mmHg 72%
    11:00 +7°C° 0 mm 2 mps 739 mmHg 68%
    12:00 +7°C° 0 mm 2 mps 739 mmHg 66%
    13:00 +8°C° 0 mm 2 mps 739 mmHg 65%
    14:00 +9°C° 0 mm 3 mps 738 mmHg 63%
    15:00 +8°C° 0 mm 3 mps 738 mmHg 68%
    16:00 +7°C° 0 mm 2 mps 738 mmHg 72%
    17:00 +7°C° 0 mm 2 mps 738 mmHg 76%
    18:00 +6°C° 0 mm 2 mps 738 mmHg 78%
    19:00 +6°C° 0 mm 2 mps 738 mmHg 80%
    20:00 +5°C° 0 mm 2 mps 737 mmHg 82%
    21:00 +5°C° 0 mm 2 mps 737 mmHg 81%
    22:00 +5°C° 0 mm 2 mps 736 mmHg 80%
    23:00 +6°C° 0 mm 1 mps 736 mmHg 79%

    17 December, Monday

    Time Temperature Precipitation Wind Pressure Humidity
    00:00 +6°C° 0 mm 1 mps 736 mmHg 76%
    01:00 +6°C° 0 mm 1 mps 735 mmHg 74%
    02:00 +6°C° 0 mm 1 mps 735 mmHg 71%
    03:00 +6°C° 0 mm 1 mps 735 mmHg 68%
    04:00 +7°C° 0 mm 1 mps 735 mmHg 65%
    05:00 +7°C° 0 mm 1 mps 734 mmHg 62%
    06:00 +7°C° 0 mm 1 mps 734 mmHg 59%
    07:00 +7°C° 0 mm 1 mps 734 mmHg 56%
    08:00 +7°C° 0 mm 1 mps 734 mmHg 53%
    09:00 +9°C° 0 mm 1 mps 735 mmHg 46%
    10:00 +11°C° 0 mm 1 mps 735 mmHg 39%
    11:00 +13°C° 0 mm 2 mps 735 mmHg 32%
    12:00 +14°C° 0 mm 2 mps 734 mmHg 29%
    13:00 +14°C° 0 mm 2 mps 734 mmHg 26%
    14:00 +15°C° 0 mm 2 mps 734 mmHg 24%
    15:00 +14°C° 0 mm 2 mps 734 mmHg 26%
    16:00 +13°C° 0 mm 2 mps 734 mmHg 29%
    17:00 +12°C° 0 mm 2 mps 734 mmHg 31%
    18:00 +12°C° 0 mm 2 mps 734 mmHg 32%
    19:00 +12°C° 0 mm 2 mps 735 mmHg 33%
    20:00 +10°C° 0 mm 2 mps 735 mmHg 34%
    21:00 +10°C° 0 mm 2 mps 735 mmHg 35%
    22:00 +9°C° 0 mm 2 mps 735 mmHg 37%
    23:00 +9°C° 0 mm 2 mps 735 mmHg 38%

    18 December, Tuesday

    Time Temperature Precipitation Wind Pressure Humidity
    00:00 +8°C° 0 mm 2 mps 735 mmHg 39%
    01:00 +9°C° 0 mm 1 mps 735 mmHg 40%
    02:00 +9°C° 0 mm 1 mps 735 mmHg 41%
    03:00 +9°C° 0 mm 1 mps 735 mmHg 42%
    04:00 +8°C° 0 mm 1 mps 734 mmHg 43%
    05:00 +8°C° 0 mm 1 mps 734 mmHg 44%
    06:00 +8°C° 0 mm 1 mps 734 mmHg 44%
    07:00 +8°C° 0 mm 1 mps 734 mmHg 44%
    08:00 +8°C° 0 mm 1 mps 734 mmHg 44%
    09:00 +9°C° 0 mm 1 mps 734 mmHg 42%
    10:00 +11°C° 0 mm 1 mps 734 mmHg 40%
    11:00 +12°C° 0 mm 1 mps 734 mmHg 37%
    12:00 +12°C° 0 mm 1 mps 734 mmHg 37%
    13:00 +13°C° 0 mm 2 mps 733 mmHg 36%
    14:00 +13°C° 0 mm 2 mps 732 mmHg 36%
    15:00 +13°C° 0 mm 2 mps 732 mmHg 39%
    16:00 +12°C° 0 mm 2 mps 732 mmHg 42%
    17:00 +11°C° 0 mm 1 mps 732 mmHg 46%
    18:00 +11°C° 0 mm 1 mps 732 mmHg 48%
    19:00 +11°C° 0 mm 1 mps 732 mmHg 50%
    20:00 +10°C° 0 mm 1 mps 732 mmHg 51%
    21:00 +10°C° 0 mm 1 mps 732 mmHg 53%
    22:00 +10°C° 0 mm 1 mps 731 mmHg 55%
    23:00 +9°C° 0 mm 1 mps 731 mmHg 56%

    19 December, Wednesday

    Time Temperature Precipitation Wind Pressure Humidity
    00:00 +9°C° 0 mm 1 mps 731 mmHg 57%
    01:00 +9°C° 0 mm 1 mps 730 mmHg 58%
    02:00 +9°C° 0 mm 1 mps 730 mmHg 58%
    03:00 +9°C° 0 mm 1 mps 730 mmHg 59%
    04:00 +9°C° 0 mm 1 mps 729 mmHg 59%
    05:00 +9°C° 0 mm 1 mps 729 mmHg 60%
    06:00 +8°C° 0 mm 1 mps 729 mmHg 61%
    07:00 +8°C° 0 mm 1 mps 729 mmHg 61%
    08:00 +8°C° 0 mm 1 mps 730 mmHg 62%
    09:00 +9°C° 0 mm 1 mps 730 mmHg 58%
    10:00 +10°C° 0 mm 1 mps 730 mmHg 55%
    11:00 +11°C° 0 mm 1 mps 730 mmHg 52%
    12:00 +12°C° 0 mm 1 mps 730 mmHg 50%
    13:00 +12°C° 0 mm 1 mps 730 mmHg 47%
    14:00 +13°C° 0 mm 1 mps 730 mmHg 45%
    15:00 +12°C° 0 mm 1 mps 730 mmHg 48%
    16:00 +12°C° 0 mm 1 mps 731 mmHg 51%
    17:00 +11°C° 0 mm 1 mps 731 mmHg 54%
    18:00 +11°C° 0 mm 1 mps 732 mmHg 57%
    19:00 +9°C° 0 mm 2 mps 732 mmHg 60%
    20:00 +9°C° 0 mm 2 mps 733 mmHg 62%
    21:00 +8°C° 0.1 mm 2 mps 733 mmHg 64%
    22:00 +8°C° 0.1 mm 2 mps 734 mmHg 67%
    23:00 +8°C° 0.1 mm 2 mps 734 mmHg 69%
    Show more